Regional Weather Roundup
Issued by NWS Goodland, KS

Home | Current Version | Previous Version | Text Only | Print | Product List | Glossary On
Versions: 1 2 3 4 5 6 7 8 9 10 11 12 13 14 15 16 17 18 19 20 21 22 23 24 25 26 27 28 29 30 31 32 33 34 35 36 37 38 39 40 41 42 43 44 45 46 47 48 49 50
000
ASUS43 KGLD 031508
RWRGLD

GOODLAND FORECAST AREA HOURLY WEATHER ROUNDUP
NATIONAL WEATHER SERVICE GOODLAND KS
900 AM MDT MON AUG 03 2015

...OFFICIAL OBSERVATIONS...

CITY           SKY/WX    TMP DP  RH WIND       PRES   REMARKS
GOODLAND KS    MOSUNNY   79  62  56 E6        30.03S
HILL CITY KS   SUNNY     79  63  57 NE3       29.98R
IMPERIAL NEB   MOSUNNY   73  58  59 SE12      30.02S
MCCOOK NEB     SUNNY     75  64  68 E10       30.00S
AKRON CO       PTSUNNY   79  62  56 SW8       30.07R
BURLINGTON CO  PTSUNNY   78  65  63 SE6       30.06S
LIMON CO       CLOUDY    71  57  61 CALM      30.12S
$$

...UNOFFICIAL OBSERVATIONS...

CITY           SKY/WX    TMP DP  RH WIND       PRES   REMARKS
COLBY KS       SUNNY     79  64  61 NE7       30.02F
NORTON KS      SUNNY     77  63  61 E5        29.98S
SHARON SPRINGS   N/A     77  68  73 NE5         N/A
KIT CARSON CO    N/A     78  65  63 MISG        N/A
YUMA CO          N/A     77  64  64 CALM        N/A
$$



USA.gov is the U.S. government's official web portal to all federal, state and local government web resources and services.